Weather History for KUTS - December, 2012

Change the Weather History Date:

Sunday, December 9, 2012

  Actual Average (KCXO) Record (KCXO)
Temperature  
Mean Temperature 66 °F -  
Max Temperature 79 °F 61 °F 81 °F (2007)
Min Temperature 53 °F 39 °F 28 °F (2006)
Cooling Degree Days 1    
Growing Degree Days 16 (Base 50)    
Moisture  
Dew Point 63 °F    
Average Humidity 85    
Maximum Humidity 100    
Minimum Humidity 64    
Precipitation  
Precipitation 1.89 in - - ()
Sea Level Pressure  
Sea Level Pressure 29.85 in    
Wind  
Wind Speed 9 mph (SSW)    
Max Wind Speed 16 mph    
Max Gust Speed 28 mph    
Visibility 7 miles    
Events Rain , Thunderstorm    
Averages and records for this station are not official NWS values.
T = Trace of Precipitation, MM = Missing Value Source: NWS Daily Summary

Daily Weather History Graph

Daily Weather History Graph

Search for Another Location

Airport or City:

Trip Planner

Search our weather history database for the weather conditions in past years. The results will help you decide how hot, cold, wet, or windy it might be!

Date:

Astronomy

Dec. 09, 2012 Rise Set
Actual Time 7:08 AM CST 5:21 PM CST
Civil Twilight 6:42 AM CST 5:47 PM CST
Nautical Twilight 6:12 AM CST 6:17 PM CST
Astronomical Twilight 5:42 AM CST 6:47 PM CST
Moon 2:54 AM CST (12/9) 2:18 PM CST (12/9)
Length of Visible Light 11h 05m
Length of Day
10h 12m
Waning Crescent, 18% of the Moon is Illuminated
Dec 9
Waning Crescent
Dec 13
New
Dec 19
First Quarter
Dec 28
Full
Jan 4
Last Quarter

Hourly Weather History & Observations

Time (CST) Temp. Dew Point Humidity Pressure Visibility Wind Dir Wind Speed Gust Speed Precip Events Conditions
12:53 AM 70.0 °F 66.0 °F 87% 29.85 in 10.0 mi South 11.5 mph - N/A   Mostly Cloudy
1:53 AM 70.0 °F 66.0 °F 87% 29.85 in 10.0 mi South 10.4 mph - N/A   Mostly Cloudy
2:39 AM 69.8 °F 66.2 °F 88% 29.86 in 10.0 mi SSW 11.5 mph 17.3 mph N/A   Overcast
2:53 AM 70.0 °F 66.0 °F 87% 29.85 in 10.0 mi SSW 9.2 mph 17.3 mph N/A   Overcast
3:53 AM 69.1 °F 66.0 °F 90% 29.85 in 10.0 mi South 10.4 mph - N/A   Mostly Cloudy
4:04 AM 69.8 °F 66.2 °F 88% 29.86 in 10.0 mi South 10.4 mph - N/A   Scattered Clouds
4:16 AM 69.8 °F 66.2 °F 88% 29.86 in 10.0 mi SSW 8.1 mph - N/A   Mostly Cloudy
4:37 AM 69.8 °F 66.2 °F 88% 29.86 in 10.0 mi South 10.4 mph - N/A   Scattered Clouds
4:53 AM 69.1 °F 66.0 °F 90% 29.85 in 10.0 mi SSW 10.4 mph - N/A   Partly Cloudy
5:27 AM 69.8 °F 66.2 °F 88% 29.87 in 10.0 mi South 8.1 mph - N/A   Mostly Cloudy
5:53 AM 69.1 °F 66.0 °F 90% 29.86 in 10.0 mi South 8.1 mph - N/A   Overcast
6:53 AM 69.1 °F 66.0 °F 90% 29.88 in 10.0 mi SSW 6.9 mph - N/A   Overcast
7:02 AM 69.8 °F 66.2 °F 88% 29.89 in 10.0 mi South 9.2 mph - N/A   Mostly Cloudy
7:16 AM 69.8 °F 66.2 °F 88% 29.89 in 10.0 mi SSW 8.1 mph - N/A   Mostly Cloudy
7:53 AM 70.0 °F 66.0 °F 87% 29.88 in 10.0 mi South 11.5 mph - N/A   Overcast
8:53 AM 71.1 °F 66.0 °F 84% 29.89 in 10.0 mi South 9.2 mph - N/A   Overcast
9:53 AM 72.0 °F 66.9 °F 84% 29.89 in 10.0 mi South 9.2 mph - N/A   Overcast
10:43 AM 73.4 °F 66.2 °F 78% 29.90 in 10.0 mi South 9.2 mph - N/A   Overcast
10:53 AM 75.0 °F 66.9 °F 76% 29.88 in 10.0 mi South 12.7 mph - N/A   Mostly Cloudy
11:53 AM 77.0 °F 66.0 °F 69% 29.86 in 8.0 mi SSW 11.5 mph 18.4 mph N/A   Mostly Cloudy
12:07 PM 77.0 °F 66.2 °F 69% 29.86 in 8.0 mi SSW 10.4 mph 20.7 mph N/A   Overcast
12:16 PM 77.0 °F 66.2 °F 69% 29.86 in 8.0 mi SSW 10.4 mph 19.6 mph N/A   Overcast
12:53 PM 79.0 °F 66.9 °F 66% 29.82 in 8.0 mi SSW 9.2 mph - N/A   Mostly Cloudy
1:00 PM 78.8 °F 66.2 °F 65% 29.83 in 8.0 mi SSW 12.7 mph 19.6 mph N/A   Mostly Cloudy
1:25 PM 78.8 °F 66.2 °F 65% 29.82 in 8.0 mi SSW 16.1 mph 24.2 mph N/A   Mostly Cloudy
1:53 PM 78.1 °F 66.0 °F 66% 29.80 in 8.0 mi SW 11.5 mph 20.7 mph N/A   Partly Cloudy
2:53 PM 79.0 °F 66.0 °F 64% 29.78 in 9.0 mi SSW 6.9 mph 19.6 mph N/A   Scattered Clouds
3:53 PM 78.1 °F 66.9 °F 68% 29.76 in 8.0 mi SSE 6.9 mph - N/A   Mostly Cloudy
4:38 PM 77.0 °F 66.2 °F 69% 29.78 in 8.0 mi Calm Calm - N/A Thunderstorm Thunderstorm
4:53 PM 77.0 °F 68.0 °F 74% 29.78 in 4.0 mi South 13.8 mph 19.6 mph 0.06 in Rain , Thunderstorm Thunderstorms and Rain
4:55 PM 75.2 °F 68.0 °F 78% 29.80 in 1.8 mi SSW 13.8 mph 19.6 mph 0.08 in Rain , Thunderstorm Heavy Thunderstorms and Rain
5:12 PM 69.8 °F 64.4 °F 83% 29.78 in 3.0 mi Calm Calm - 0.36 in Rain , Thunderstorm Thunderstorms and Rain
5:20 PM 69.8 °F 64.4 °F 83% 29.78 in 10.0 mi Calm Calm - 0.36 in Rain , Thunderstorm Light Thunderstorms and Rain
5:53 PM 68.0 °F 66.0 °F 93% 29.78 in 8.0 mi Calm Calm - 0.36 in Thunderstorm Mostly Cloudy
6:00 PM 68.0 °F 66.2 °F 94% 29.79 in 7.0 mi Calm Calm - N/A Thunderstorm Thunderstorm
6:39 PM 68.0 °F 66.2 °F 94% 29.80 in 5.0 mi Calm Calm - N/A Thunderstorm Mostly Cloudy
6:53 PM 68.0 °F 66.0 °F 93% 29.78 in 7.0 mi Calm Calm - N/A Thunderstorm Mostly Cloudy
6:59 PM 69.8 °F 66.2 °F 88% 29.79 in 9.0 mi South 4.6 mph - N/A   Mostly Cloudy
7:19 PM 71.6 °F 68.0 °F 88% 29.81 in 8.0 mi SSW 9.2 mph - 0.00 in Thunderstorm Partly Cloudy
7:34 PM 71.6 °F 68.0 °F 88% 29.81 in 7.0 mi SSW 8.1 mph - 0.00 in   Mostly Cloudy
7:41 PM 71.6 °F 68.0 °F 88% 29.82 in 7.0 mi Variable 6.9 mph - 0.00 in Thunderstorm Mostly Cloudy
7:53 PM 64.0 °F 60.1 °F 87% 29.83 in 9.0 mi NNW 11.5 mph 27.6 mph 0.00 in Rain , Thunderstorm Light Thunderstorms and Rain
8:12 PM 60.8 °F 57.2 °F 88% 29.86 in 5.0 mi NNW 11.5 mph 18.4 mph 0.04 in Rain , Thunderstorm Heavy Rain
8:24 PM 57.2 °F 55.4 °F 94% 29.86 in 4.0 mi Variable 6.9 mph 18.4 mph 0.10 in Rain , Thunderstorm Light Rain
8:48 PM 57.2 °F 55.4 °F 94% 29.87 in 9.0 mi NNW 5.8 mph - 0.10 in Rain Light Rain
8:53 PM 57.0 °F 54.0 °F 89% 29.87 in 8.0 mi NNW 8.1 mph - 0.10 in Rain , Thunderstorm Light Rain
9:29 PM 55.4 °F 55.4 °F 100% 29.90 in 1.8 mi NW 9.2 mph - 0.23 in Rain , Thunderstorm Heavy Thunderstorms and Rain
9:37 PM 55.4 °F 53.6 °F 94% 29.91 in 1.2 mi NW 8.1 mph - 0.41 in Rain , Thunderstorm Heavy Thunderstorms and Rain
9:53 PM 55.0 °F 54.0 °F 96% 29.90 in 2.0 mi Variable 4.6 mph - 0.78 in Rain , Thunderstorm Heavy Thunderstorms and Rain
10:01 PM 55.4 °F 53.6 °F 94% 29.91 in 1.2 mi Calm Calm - 0.15 in Rain , Thunderstorm Heavy Rain
10:08 PM 55.4 °F 53.6 °F 94% 29.90 in 3.0 mi NNW 6.9 mph - 0.15 in Rain , Thunderstorm Light Rain
10:53 PM 55.9 °F 54.0 °F 93% 29.88 in 8.0 mi Variable 4.6 mph - 0.15 in   Overcast
11:27 PM 55.4 °F 51.8 °F 88% 29.91 in 2.5 mi Variable 6.9 mph - 0.14 in Rain , Thunderstorm Heavy Thunderstorms and Rain
11:32 PM 53.6 °F 51.8 °F 94% 29.92 in 0.8 mi Calm Calm - 0.41 in Rain , Thunderstorm Heavy Thunderstorms and Rain
11:39 PM 53.6 °F 51.8 °F 94% 29.91 in 1.0 mi Variable 3.5 mph - 0.44 in Rain , Thunderstorm Heavy Thunderstorms and Rain
11:43 PM 53.6 °F 51.8 °F 94% 29.91 in 3.0 mi NNW 5.8 mph - 0.44 in Rain , Thunderstorm Light Thunderstorms and Rain
11:53 PM 54.0 °F 51.1 °F 90% 29.88 in 9.0 mi North 8.1 mph - 0.44 in Thunderstorm Overcast